Cloud_Cover
100 94 24 100 36 0 1 13 17 20 12 0 0 0 0 0 1 17 23 23 22 20 20 25 22 0 0 0 0 0 0 0 0 0 0 0 0 0 0 0 3 1 0 1 0 0 0
17 54 98 3 9 4 9 11 20 8 1 0 0 0 0 0 18 25 19 5 20 25 7 0 6 0 0 0 0 0 0 0 0 0 0 0 0 0 0 4 3 5 18 5 2 0 0
77 71 12 14 11 8 10 16 11 3 0 0 0 0 0 0 19 17 15 18 18 13 0 0 0 0 0 0 0 0 0 0 0 0 0 0 0 0 0 0 3 2 2 5 5 0 0
6 10 20 17 1 0 0 3 9 1 4 0 0 0 0 1 18 29 32 4 26 0 0 0 0 0 0 0 0 0 0 0 0 0 0 0 0 0 0 0 0 0 2 4 5 2 0
0 0 2 1 0 0 0 0 1 0 0 0 0 0 0 1 21 55 32 31 0 0 0 0 0 0 0 0 0 0 0 0 0 0 0 0 0 0 0 0 2 5 4 5 4 1 0
0 0 0 0 0 0 0 0 0 0 1 0 0 0 0 2 30 24 66 0 0 0 0 0 0 0 0 0 0 0 0 0 0 0 0 0 0 0 0 5 5 5 4 4 4 0 0
35 32 28 7 0 0 0 0 0 0 0 0 0 0 0 13 23 52 35 0 0 0 0 0 0 0 0 0 0 0 0 0 0 0 0 0 0 1 41 5 5 5 0 4 0 0 0
100 100 100 93 45 8 0 0 0 0 0 0 0 5 12 18 33 79 28 0 0 0 0 0 0 0 0 0 0 0 0 0 0 0 0 0 0 32 5 3 0 3 0 1 0 0 4
100 100 100 70 16 33 40 4 0 0 3 0 6 18 36 26 9 22 0 0 0 0 0 0 0 0 0 0 0 0 0 0 0 0 0 0 0 1 0 0 0 0 1 5 2 4 39
100 100 100 1 0 0 29 44 28 22 15 10 10 35 55 97 0 0 0 0 0 0 0 0 0 0 0 0 0 0 0 0 0 0 0 0 3 0 0 0 0 0 0 0 0 4 18
100 100 100 44 8 0 22 40 54 63 46 7 18 55 100 94 24 0 0 0 0 0 0 0 0 0 0 0 0 0 0 0 0 0 0 0 2 0 0 0 0 0 0 0 0 0 0
97 100 100 94 46 4 17 45 96 100 69 18 18 95 99 54 55 1 0 0 0 0 0 0 0 0 0 0 0 0 0 0 0 0 0 0 0 0 0 0 0 0 0 0 0 0 3
100 98 74 99 14 19 9 61 100 100 52 36 54 100 99 0 0 0 0 0 0 0 0 0 0 0 0 0 0 0 0 0 0 0 0 0 0 0 0 0 0 0 0 0 0 2 5
100 100 86 17 13 24 15 59 100 80 41 39 100 51 42 3 0 0 0 0 0 0 0 0 0 0 0 0 0 0 0 0 0 0 0 0 0 0 0 0 0 0 0 0 0 0 1
100 100 100 6 12 27 26 65 95 49 72 94 16 7 0 1 0 0 0 0 0 0 0 0 0 0 0 0 0 0 0 0 0 0 0 0 0 0 0 0 0 0 0 0 0 0 41
100 100 99 0 10 24 29 77 54 54 100 26 19 0 0 0 0 0 0 0 0 0 0 0 0 0 0 0 0 0 0 0 0 0 0 0 0 0 0 0 1 2 3 0 1 0 67
100 100 60 0 3 9 39 77 53 55 100 0 0 0 0 0 0 0 3 0 4 5 3 0 0 0 0 0 0 0 0 0 0 0 0 0 0 0 0 0 6 5 3 5 0 0 4
100 100 40 82 0 2 48 89 60 48 100 17 0 0 0 0 0 4 89 69 5 10 86 1 0 0 0 0 0 0 0 0 0 0 0 0 0 0 0 1 5 5 35 6 5 50 100
100 100 100 100 96 1 43 100 94 39 100 100 0 0 0 0 0 5 100 2 76 100 100 12 5 0 0 0 0 0 0 0 0 0 0 0 0 0 0 0 2 5 0 0 0 14 55
100 100 100 100 100 0 84 100 98 18 66 40 0 0 0 0 2 2 99 20 100 93 32 24 36 4 3 0 0 0 0 0 0 0 0 4 0 0 0 0 6 70 7 0 2 90 87
100 100 99 100 90 2 100 100 100 7 23 0 0 0 0 0 0 5 64 44 67 54 58 100 5 5 5 4 5 5 0 0 0 3 5 91 4 0 0 1 72 97 1 0 0 5 79
100 100 100 69 13 7 100 100 100 0 1 0 0 0 0 0 0 0 6 5 58 5 75 5 78 8 5 5 5 5 0 5 5 54 90 72 5 23 6 5 5 39 99 35 0 5 6
100 100 100 100 98 7 64 100 100 67 0 1 0 0 0 0 0 0 0 2 87 6 42 33 10 82 98 85 5 5 0 5 12 67 98 63 100 100 39 96 6 6 18 20 0 0 70
100 100 100 100 100 25 40 37 100 99 99 48 4 0 0 0 1 0 0 0 4 50 5 100 100 36 0 13 4 65 94 2 5 62 100 100 100 58 34 2 5 85 28 4 2 100 100
100 100 100 100 100 29 15 3 98 100 54 100 9 0 0 0 2 90 58 36 0 2 9 100 100 100 98 78 20 5 5 13 3 1 52 55 100 41 3 4 4 5 3 2 5 44 22
100 100 100 100 100 15 5 5 9 100 21 38 16 0 0 0 0 100 100 100 100 44 5 23 98 70 31 10 35 97 16 5 6 0 1 0 0 0 0 0 5 5 23 69 97 100 7
100 95 100 100 99 5 19 18 47 100 65 85 13 0 0 0 0 38 100 100 100 100 49 5 75 100 100 100 30 84 60 11 5 10 5 4 4 0 4 2 10 100 16 4 63 100 100
100 73 94 52 5 5 14 5 27 100 100 56 24 0 0 0 0 0 53 100 100 100 99 100 8 5 19 62 95 85 8 42 28 7 4 5 5 5 0 0 13 85 10 5 4 4 5
100 49 5 6 9 24 43 30 5 64 41 8 8 0 0 0 0 0 0 5 39 96 98 100 100 98 6 7 13 5 16 10 14 80 5 5 6 5 5 0 4 94 100 81 6 5 4